This demonstration page uses our WeatherBlox Daily Observations layout. Learn more.

Left ArrowRight Arrow

Hourly Observations for January 15, 2022

Temp ( °F °C ) Dew Point ( °F °C ) Humidity (%) Winds ( mph kmh ) Pressure ( in mb ) Visibility ( mi km ) Precip ( " mm )
12:52 am 00:52 Mostly Cloudy with Light Snow 20 -6.7 17 -8.3 89 89 N 23 37 30.25 1025 1 1 0.02 0.51
1:52 am 01:52 Mostly Cloudy with Snow 19 -7.2 16 -8.9 88 88 N 25 41 30.28 1026 1 1 0.01 0.25
2:13 am 02:13 Mostly Cloudy with Light Snow 19 -7.2 15 -9.4 84 84 N 26 43 30.33 1027 1 2 0.00 0.00
2:25 am 02:25 Windy with Snow Likely 19 -7.2 14 -10 81 81 N 26 43 30.34 1028 2 3 0.01 0.25
2:52 am 02:52 Windy with Snow Likely 19 -7.2 14 -10 81 81 N 25 41 30.32 1027 2 3 0.01 0.25
3:32 am 03:32 Windy with Snow Likely 18 -7.8 14 -10 84 84 N 23 37 30.39 1029 2 2 0.00 0.00
3:52 am 03:52 Windy with Snow Likely 18 -7.8 14 -10 84 84 N 25 41 30.35 1028 2 3 0.00 0.00
4:05 am 04:05 Windy with Snow Likely 18 -7.8 13 -10.6 81 81 N 23 37 30.41 1030 3 5 0.00 0.00
4:30 am 04:30 Cloudy with Blowing Snow 18 -7.8 13 -10.6 81 81 N 28 44 30.42 1030 5 8 0.00 0.00
4:52 am 04:52 Cloudy with Blowing Snow 17 -8.3 12 -11.1 80 80 N 28 44 30.38 1029 5 8 0.00 0.00
5:49 am 05:49 Cloudy 16 -9 10 -12 79 79 N 24 39 30.47 1032 10 16 0.00 0.00
5:52 am 05:52 Cloudy 16 -8.9 11 -11.7 80 80 N 23 37 30.42 1030 10 16 0.00 0.00
6:52 am 06:52 Cloudy 15 -9.4 9 -12.8 77 77 N 22 35 30.46 1031 10 16 0.00 0.00
7:52 am 07:52 Cloudy 14 -10 7 -13.9 73 73 N 21 33 30.50 1033 10 16 0.00 0.00
8:41 am 08:41 Mostly Cloudy 12 -11.1 5 -15 73 73 N 17 28 30.55 1035 10 16 0.00 0.00
8:52 am 08:52 Mostly Cloudy 11 -11.7 4 -15.6 73 73 N 14 22 30.50 1033 10 16 0.00 0.00
9:45 am 09:45 Mostly Cloudy 12 -11.1 5 -15 73 73 N 15 24 30.56 1035 10 16 0.00 0.00
9:52 am 09:52 Mostly Cloudy 12 -11.1 4 -15.6 70 70 N 17 28 30.52 1034 10 16 0.00 0.00
10:40 am 10:40 Partly Cloudy 12 -11.1 5 -15 73 73 N 14 22 30.60 1036 10 16 0.00 0.00
10:52 am 10:52 Partly Cloudy 12 -11.1 5 -15 73 73 N 17 28 30.54 1034 10 16 0.00 0.00
11:52 am 11:52 Mostly Sunny 14 -10 6 -14.4 71 71 N 15 24 30.51 1033 10 16 0.00 0.00
12:52 pm 12:52 Sunny 14 -10 7 -13.9 73 73 N 14 22 30.48 1032 10 16 0.00 0.00
1:52 pm 13:52 Mostly Sunny 15 -9.4 7 -13.9 70 70 NNW 13 20 30.45 1031 9 14 0.00 0.00
2:52 pm 14:52 Sunny 15 -9.4 7 -13.9 70 70 NNW 12 19 30.42 1030 10 16 0.00 0.00
3:52 pm 15:52 Sunny 15 -9.4 7 -13.9 70 70 N 9 15 30.42 1030 10 16 0.00 0.00
4:52 pm 16:52 Mostly Sunny 12 -11.1 6 -14.4 77 77 N 6 9 30.42 1030 10 16 0.00 0.00
5:52 pm 17:52 Mostly Clear 9 -12.8 4 -15.6 80 80 NNE 5 7 30.40 1030 10 16 0.00 0.00
6:52 pm 18:52 Clear 10 -12.2 6 -14.4 84 84 ENE 5 7 30.38 1029 10 16 0.00 0.00
7:52 pm 19:52 Clear 9 -12.8 4 -15.6 80 80 Calm 30.38 1029 10 16 0.00 0.00
8:52 pm 20:52 Clear 6 -14.4 2 -16.7 83 83 SE 7 11 30.34 1027 10 16 0.00 0.00
9:52 pm 21:52 Mostly Clear 6 -14.4 2 -16.7 83 83 S 6 9 30.31 1027 10 16 0.00 0.00
10:14 pm 22:14 Mostly Clear 8 -13.3 4 -15.6 83 83 SSE 8 13 30.35 1028 10 16 0.00 0.00
10:52 pm 22:52 Mostly Clear 9 -12.8 5 -15 84 84 S 7 11 30.30 1026 10 16 0.00 0.00
11:52 pm 23:52 Mostly Clear 5 -15 2 -16.7 87 87 SSE 8 13 30.28 1025 10 16 0.00 0.00

Powered by AerisWeather